QZS-1 (QZSS/PRN 183)

Last updated on Wed Apr 24 2024 00:03:14 GMT+0000 (Coordinated Universal Time)

1 37158U 10045A 24114.26646427 .00000060 00000+0 00000+0 0 9997 2 37158 43.1783 125.0593 0000795 283.2372 76.0992 0.87715979 49509

Satellite not in orbit

QZS-1 (QZSS/PRN 183)